Voltar ao catálogo

COSMOS 1473

AtivoMilitarLEO
NORAD 14171·PAYLOAD·🇷🇺 Russia

Lançado Jul 6, 1983 de Plesetsk Cosmodrome

Loading…

Próximas Passagens (próximas 24 horas)

TLE

AtualizadoSource: Space-Track

Época: Sep 14, 2026, 21:47 UTC

1 14171U 83069A   26257.90770537 -.00000023  00000-0 -43235-4 0  9998
2 14171  74.0230 228.0079 0043062 116.3353 272.1815 12.58768068984825

Acompanhe COSMOS 1473 em tempo real com AllMySat

Download on the App Store